{"data":{"norad_id":58918,"intl_designator":"2024-024B","name":"2024-024B","alt_names":[],"object_type":"PAYLOAD","status":"ACTIVE","operator":null,"country":"PRC","launch_date":"2024-02-03","launch_site_code":"SCSLA","launch_vehicle":null,"mission":null,"orbit_class":"UNKNOWN","rcs_meters":null,"size_class":null,"mass_kg":null,"dimensions":null,"purposes":[],"wikipedia_slug":null,"has_3d_model":false,"image_url":null,"decayed_at":null,"tle_current":{"epoch":"2026-05-25T04:35:13.771968Z","epoch_age_seconds":58864,"freshness":"FRESH","line1":"1 58918U 24024B   26145.19113162  .00007838  00000+0  35130-3 0  9995","line2":"2 58918  97.3075 212.2425 0016923 211.2223 148.8009 15.21370777127859","mean_motion":15.21370777,"eccentricity":0.0016923,"inclination_deg":97.3075,"raan_deg":212.2425,"arg_perigee_deg":211.2223,"mean_anomaly_deg":148.8009,"bstar":0.0003513,"rev_number":12785,"period_min":94.651482844934,"perigee_km":490.06219396521,"apogee_km":513.34770703087,"semimajor_km":6879.841950498,"source":"CELESTRAK","updated_at":"2026-05-25T13:38:01.078499Z"}}}